2020-086B (46985 NORAD) Tracking and Keplerian Element Data
This shows tracking and keplerian element data for the satellite.
Feedback or suggestion? Click here.
Element | Value |
Catalog | 46985 |
Name | 2020-086B |
Epoch Orbit | 1 |
Epoch Day | 326.92241646 |
Epoch Year | 2020 |
RAAN | 38.6876 |
Inclination | 66.0694 |
Eccentricity | 0.001165 |
Argument of Perigee | 241.1823 |
Mean Anonmoly | 118.8027 |
Mean Motion | 12.85515475 |
Decay Rate | -6.2E-07 |
L1 | 1 46985U 20086B 20326.92241646 -.00000062 00000-0 00000+0 0 9993 |
L2 | 2 46985 66.0694 38.6876 0011650 241.1823 118.8027 12.85515475 18 |
Live tracking and technical data element details for 2020-086B (NORAD 46985). 2020-086B can be tracked NOW for your location showing map with azimuth and elevation plus other details from your city location.
Track the satellite on the map from your city or location and see movement details for azimuth, elevation, latitude, longitude, range, height, and movement on the map or in text.
IsCatalogInMostPopularTable: catalog: 46985, numindb: 17
Update: records affected: 1
GetName: 46985 2020-086B
Hit Count: updated at: Tue, 19 Jan 2021 02:54:52 GMT